World > North America > United States > New Jersey

South River, New Jersey Regional Weather

Lat: 40.45N, Lon: 74.39W
Wx Zone: NJZ012
Feedback

South River, NJ Regional Weather

Expires:201910141400;;696132
ASUS41 KPHI 141312
RWRPHI

REGIONAL WEATHER ROUNDUP
NATIONAL WEATHER SERVICE MOUNT HOLLY NJ
900 AM EDT MON OCT 14 2019

NOTE:  "FAIR" INDICATES FEW OR NO CLOUDS BELOW 12,000 FEET WITH NO
SIGNIFICANT WEATHER AND/OR OBSTRUCTIONS TO VISIBILITY.

 * = STATION DOES NOT REPORT PRECIPITATION (E.G. RAIN, SNOW, ETC.) 
        OR FOG.


NJZ001>014-141400-
NORTHERN NEW JERSEY
  
CITY           SKY/WX    TMP DP  RH WIND       PRES   REMARKS
SUSSEX         PTSUNNY   53  49  86 CALM      30.00R                  
ANDOVER*         N/A     57  53  86 S3        30.01R                  
MORRISTOWN     PTSUNNY   57  57 100 W3        30.01R                  
NEWARK         CLOUDY    61  54  77 W7        30.01R                  
TETERBORO      CLOUDY    62  53  72 VRB3      30.00R                  
CALDWELL       CLOUDY    60  54  80 VRB3      30.01R                  
SOMERVILLE     CLOUDY    58  54  86 MISG      30.00R                  
ALLAIRE*       CLOUDY    58  57  97 W3        30.02R                  
TOMS RIVER*    CLOUDY   N/A N/A N/A CALM      30.02R                  

$$

SKY/WX - Weather  TMP - Temperature  DP - Dew Point  RH - Relative Humidity
WIND - Wind Direction/Speed PRES - Barometric Pressure VSB - Visibility
WCI - Wind Chill Index E13G22 Wind - East Wind 13 mph/Gusts of 22 mph